Flag Weather past 2 weeks in Port Moresby, Papua New Guinea

Now
79 °F

Passing clouds.


Feels Like: 82 °F
Forecast: 77 / 88 °F
Wind: 16 mph from South

Location: Moresby

Current Time: Oct 30, 2014 at 11:06:59 PM

Latest Report: Oct 30, 2014 at 10:00 PM


Visibility: N/A

Pressure: 29.80 "Hg

Humidity: 84%

Dew point: 73 °F

Location of Port MoresbyLocation

Historic Weather in Port Moresby — Graph

°F

Port Moresby temperature yesterday

Maximum temperature yesterday: 88 °F (at 2:00 PM)
Minimum temperature yesterday: 75 °F (at 4:00 AM)
Average temperature yesterday: 80 °F

Past Weeks' High & Low Weather Summary

 TemperatureHumidityPressure
High90 °F (Oct 21, 12:00 PM)89% (Oct 21, 11:00 PM)29.92 "Hg (Oct 21, 11:00 PM)
Low73 °F (Oct 27, 2:00 AM)46% (Oct 28, 10:01 AM)29.71 "Hg (Oct 30, 4:00 PM)
Average80 °F74%29.83 "Hg
* Reported Oct 17 5:00 PM — Oct 30 10:00 PM, Port Moresby, Weather by CustomWeather, © 2014

Note: Actual official high and low records may vary slightly from our data, if they occured in-between our weather recording intervals... More about our weather records

Advertising

Port Moresby weather history for previous 24 hours

 ConditionsComfort  
Time TempWeatherWind HumidityBarometerVisibility
10:00 PM
Oct 30
79 °FPassing clouds.16 mph84%29.80 "HgN/A
9:00 PM79 °FPassing clouds.14 mph79%29.80 "HgN/A
8:00 PM81 °FPassing clouds.14 mph79%29.77 "HgN/A
7:00 PM79 °FPartly cloudy.16 mph89%29.77 "HgN/A
6:00 PM81 °FBroken clouds.12 mph74%29.77 "HgN/A
5:00 PM82 °FPartly sunny.14 mph70%29.74 "HgN/A
4:00 PM84 °FScattered clouds.16 mph62%29.71 "HgN/A
3:00 PM86 °FScattered clouds.21 mph62%29.74 "HgN/A
2:00 PM86 °FScattered clouds.18 mph66%N/AN/A
1:00 PM84 °FScattered clouds.18 mph66%29.77 "HgN/A
12:00 PM86 °FPassing clouds.17 mph62%29.80 "HgN/A
11:00 AM88 °FScattered clouds.9 mph59%29.80 "HgN/A
10:00 AM86 °FScattered clouds.9 mph59%29.83 "HgN/A
4:00 AM75 °FPassing clouds.7 mph89%29.80 "HgN/A
3:00 AM75 °FPassing clouds.9 mph89%29.80 "HgN/A
2:00 AM75 °FPassing clouds.7 mph89%29.80 "HgN/A
1:00 AM75 °FClear.7 mph89%29.80 "HgN/A
12:00 AM77 °FPassing clouds.3 mph89%29.83 "HgN/A
11:00 PM
Oct 29
77 °FPassing clouds.7 mph89%29.83 "HgN/A
Weather by CustomWeather, © 2014

See weather overviewHow to use our weather pages